Meteo Giornale » Osservazioni meteo Germania » Erfurt-Bindersleben
ore: 14:50 - Osservazioni Meteo Erfurt-Bindersleben
Lat. 50° 59' N Lon. 10° 58' E Alt. 315 metri s.l.m.
20 °C
Poco Nuvoloso
Temp. 24 Ore
13 °C
23 °C
Ovest
20.3 Km/h
Dew point 13 °C
Umidità 64 %
Visibilità 10 Km
Il sole sorge alle ore 06:29
Il sole tramonta alle ore 20:02
| Data e Ora | Cielo e Fenomeni | T °C | DP °C | Um. % | Pres. hPa | Vis. km | Vento km/h | |
|---|---|---|---|---|---|---|---|---|
| Oggi h: 14:50 | Poco Nuvoloso | 20 | 13 | 64 | 1020 | 10 | O 20.3 | |
| Oggi h: 14:20 | Nuvoloso | 21 | 13 | 60 | 1020 | 10 | O 22.2 | |
| Oggi h: 13:50 | Nuvoloso | 20 | 13 | 64 | 1020 | 10 | O 22.2 | |
| Oggi h: 13:20 | Poco Nuvoloso | 20 | 13 | 64 | 1020 | 10 | O 25.9 | |
| Oggi h: 12:50 | Molto Nuvoloso | 20 | 13 | 64 | 1020 | 10 | O 22.2 | |
| Oggi h: 12:20 | Poco Nuvoloso | 19 | 13 | 68 | 1020 | 10 | O/SO 25.9 | |
| Oggi h: 11:50 | Poco Nuvoloso | 19 | 12 | 63 | 1020 | 10 | O/SO 27.8 | |
| Oggi h: 11:20 | Poco Nuvoloso | 18 | 12 | 67 | 1020 | 10 | O/SO 27.8 | |
| Oggi h: 10:50 | Poco Nuvoloso | 18 | 12 | 67 | 1020 | 10 | O/SO 31.5 | |
| Oggi h: 10:20 | Poco Nuvoloso | 17 | 12 | 72 | 1020 | 10 | O 29.6 | |
| Oggi h: 09:50 | Poco Nuvoloso | 18 | 13 | 72 | 1020 | 10 | O/SO 25.9 | |
| Oggi h: 09:20 | Poco Nuvoloso | 16 | 12 | 77 | 1020 | 10 | O/SO 22.2 | |
| Oggi h: 08:50 | Sereno | 16 | 13 | 82 | 1020 | 10 | O/SO 22.2 | |
| Oggi h: 08:20 | Sereno | 16 | 13 | 82 | 1019 | 10 | SO 20.3 | |
| Oggi h: 07:50 | Sereno | 14 | 12 | 87 | 1019 | 10 | SO 18.5 | |
| Oggi h: 07:20 | Poco Nuvoloso | 14 | 12 | 87 | 1019 | 10 | SO 16.7 | |
| Oggi h: 06:50 | Sereno | 14 | 12 | 87 | 1019 | 10 | SO 14.8 | |
| Oggi h: 06:20 | Poco Nuvoloso | 13 | 11 | 87 | 1019 | 10 | SO 16.7 | |
| Oggi h: 05:50 | Sereno | 13 | 11 | 87 | 1018 | 10 | SO 14.8 | |
| Oggi h: 05:20 | Poco Nuvoloso | 13 | 12 | 93 | 1018 | 10 | S/SO 13 | |
| Oggi h: 04:50 | Sereno | 14 | 12 | 87 | 1018 | 10 | SO 16.7 | |
| Oggi h: 04:20 | Sereno | 14 | 12 | 87 | 1018 | 10 | O/SO 18.5 | |
| Oggi h: 03:50 | Sereno | 13 | 12 | 93 | 1018 | 10 | O/SO 22.2 | |
| Oggi h: 03:20 | Sereno | 13 | 11 | 87 | 1018 | 10 | O/SO 20.3 | |
| Oggi h: 02:50 | Sereno | 14 | 11 | 82 | 1018 | 10 | SO 16.7 | |
| Oggi h: 02:20 | Poco Nuvoloso | 13 | 12 | 93 | 1017 | 10 | SO 16.7 | |
| Oggi h: 01:50 | Sereno | 14 | 12 | 87 | 1017 | 10 | SO 18.5 | |
| Oggi h: 01:20 | Sereno | 14 | 12 | 87 | 1017 | 10 | O/SO 20.3 | |
| Oggi h: 00:50 | Sereno | 14 | 12 | 87 | 1017 | 10 | SO 22.2 | |
| Oggi h: 00:20 | Sereno | 14 | 12 | 87 | 1017 | 10 | SO 22.2 | |
| Ieri h: 23:50 | Sereno | 13 | 11 | 87 | 1017 | 10 | SO 16.7 | |
| Ieri h: 23:20 | Sereno | 13 | 12 | 93 | 1017 | 10 | SO 14.8 | |
| Ieri h: 22:50 | Sereno | 13 | 12 | 93 | 1016 | 10 | SO 18.5 | |
| Ieri h: 22:20 | Sereno | 13 | 11 | 87 | 1016 | 10 | SO 22.2 | |
| Ieri h: 21:50 | Sereno | 13 | 12 | 93 | 1016 | 10 | SO 24 | |
| Ieri h: 21:20 | Sereno | 14 | 12 | 87 | 1015 | 10 | S/SO 18.5 | |
| Ieri h: 20:50 | Pioggia Temporale nelle vicinanze | 14 | 12 | 87 | 1015 | 10 | SO 20.3 | |
| Ieri h: 20:20 | Temporale | 15 | 12 | 82 | 1015 | 10 | O 14.8 | |
| Ieri h: 19:50 | Pioggia | 16 | 12 | 77 | 1014 | 10 | O/SO 14.8 | |
| Ieri h: 19:20 | Pioggia | 17 | 13 | 77 | 1014 | 4 | O/SO 24 | |
| Ieri h: 18:50 | Poco Nuvoloso | 18 | 13 | 72 | 1014 | 10 | SO 24 | |
| Ieri h: 18:20 | Pioggia | 20 | 13 | 64 | 1014 | 10 | S/SO 33.3 | |
| Ieri h: 17:50 | Sereno | 21 | 11 | 52 | 1013 | 10 | SO 35.2 | |
| Ieri h: 17:20 | Sereno | 22 | 10 | 46 | 1013 | 10 | SO 38.8 | |
| Ieri h: 16:50 | Sereno | 23 | 11 | 46 | 1012 | 10 | SO 31.5 | |
| Ieri h: 16:20 | Sereno | 22 | 12 | 53 | 1013 | 10 | SO 27.8 | |
| Ieri h: 15:50 | Pioggia | 22 | 13 | 56 | 1013 | 10 | SO 24 | |



